{"data":{"norad_id":52697,"intl_designator":"2022-053AT","name":"STARLINK-4018","alt_names":[],"object_type":"PAYLOAD","status":"ACTIVE","operator":null,"country":"US","launch_date":"2022-05-18","launch_site_code":"AFETR","launch_vehicle":null,"mission":null,"orbit_class":"UNKNOWN","rcs_meters":null,"size_class":null,"mass_kg":null,"dimensions":null,"purposes":["comms"],"wikipedia_slug":null,"has_3d_model":false,"image_url":null,"decayed_at":null,"tle_current":{"epoch":"2026-05-24T11:53:05.785440Z","epoch_age_seconds":111960,"freshness":"FRESH","line1":"1 52697U 22053AT  26144.49520585 -.00000125  00000+0  10203-4 0  9994","line2":"2 52697  53.2131 168.8174 0001050  78.9815 281.1295 15.08834028222536","mean_motion":15.08834028,"eccentricity":0.000105,"inclination_deg":53.2131,"raan_deg":168.8174,"arg_perigee_deg":78.9815,"mean_anomaly_deg":281.1295,"bstar":1.0203e-5,"rev_number":22253,"period_min":95.437932421816,"perigee_km":539.03526368166,"apogee_km":540.4880223967,"semimajor_km":6917.8986430392,"source":"CELESTRAK","updated_at":"2026-05-25T13:38:17.237501Z"}}}